Radiation Dose at Monitoring Post of Fukushima Daini Nuclear Power Station
Date,Time,MP-1(microSv/h),MP-2(microSv/h),MP-3(microSv/h),MP-4(microSv/h),MP-5(microSv/h),MP-6(microSv/h),MP-7(microSv/h),Wind Direction,Wind Velocity(m/s),Rain
2022/04/04,00:00,0.158,0.143,0.227,0.220,0.223,0.124,0.078,southwest,3.3,No
2022/04/04,00:10,0.157,0.144,0.227,0.220,0.222,0.125,0.079,southwest,2.9,No
2022/04/04,00:20,0.158,0.144,0.227,0.218,0.222,0.125,0.078,southwest,2.2,No
2022/04/04,00:30,0.158,0.144,0.226,0.220,0.222,0.125,0.079,south-southwest,1.9,No
2022/04/04,00:40,0.158,0.144,0.228,0.219,0.221,0.125,0.079,south-southwest,1.3,Yes
2022/04/04,00:50,0.158,0.144,0.227,0.219,0.222,0.124,0.078,south-southwest,0.7,Yes
2022/04/04,01:00,0.157,0.144,0.228,0.220,0.221,0.123,0.079,south-southwest,0.8,No
2022/04/04,01:10,0.157,0.143,0.228,0.219,0.221,0.124,0.079,-,CALM,No
2022/04/04,01:20,0.158,0.143,0.227,0.220,0.224,0.124,0.079,south,1.0,No
2022/04/04,01:30,0.158,0.143,0.227,0.220,0.222,0.125,0.079,south-southwest,1.0,No
2022/04/04,01:40,0.157,0.142,0.227,0.219,0.221,0.124,0.078,-,CALM,No
2022/04/04,01:50,0.157,0.143,0.227,0.219,0.223,0.124,0.079,-,CALM,No
2022/04/04,02:00,0.158,0.143,0.226,0.220,0.222,0.124,0.079,-,CALM,No
2022/04/04,02:10,0.159,0.143,0.227,0.221,0.222,0.123,0.079,west,0.5,No
2022/04/04,02:20,0.157,0.144,0.228,0.219,0.221,0.124,0.079,southwest,0.7,No
2022/04/04,02:30,0.158,0.144,0.228,0.220,0.222,0.124,0.079,-,CALM,No
2022/04/04,02:40,0.158,0.143,0.227,0.219,0.222,0.124,0.078,north-northeast,0.7,No
2022/04/04,02:50,0.157,0.144,0.227,0.220,0.221,0.124,0.079,north,1.0,No
2022/04/04,03:00,0.158,0.144,0.228,0.219,0.223,0.124,0.079,north-northeast,2.2,No
2022/04/04,03:10,0.158,0.143,0.227,0.220,0.222,0.125,0.080,north,1.9,No
2022/04/04,03:20,0.158,0.143,0.227,0.219,0.222,0.125,0.080,north,4.9,Yes
2022/04/04,03:30,0.157,0.144,0.228,0.220,0.222,0.125,0.079,north,5.5,Yes
2022/04/04,03:40,0.158,0.143,0.226,0.220,0.222,0.124,0.079,north,4.7,No
2022/04/04,03:50,0.158,0.144,0.227,0.221,0.221,0.125,0.079,north,4.7,No
2022/04/04,04:00,0.156,0.143,0.228,0.219,0.221,0.124,0.079,north,4.6,No
2022/04/04,04:10,0.158,0.144,0.227,0.219,0.223,0.123,0.079,north-northwest,4.3,No
2022/04/04,04:20,0.157,0.143,0.227,0.220,0.221,0.124,0.079,north-northwest,5.4,No
2022/04/04,04:30,0.157,0.144,0.228,0.220,0.223,0.124,0.079,north-northwest,4.6,No
2022/04/04,04:40,0.157,0.143,0.227,0.220,0.223,0.123,0.079,north-northwest,5.0,No
2022/04/04,04:50,0.159,0.142,0.227,0.220,0.221,0.125,0.079,north-northwest,5.5,No
2022/04/04,05:00,0.158,0.144,0.228,0.221,0.221,0.124,0.079,north-northwest,5.7,No
2022/04/04,05:10,0.157,0.144,0.229,0.221,0.222,0.124,0.079,north-northwest,5.8,No
2022/04/04,05:20,0.159,0.143,0.227,0.220,0.222,0.124,0.079,north-northwest,6.6,Yes
2022/04/04,05:30,0.158,0.143,0.228,0.220,0.222,0.125,0.080,north-northwest,6.6,Yes
2022/04/04,05:40,0.159,0.144,0.226,0.219,0.222,0.124,0.080,north-northwest,6.6,Yes
2022/04/04,05:50,0.159,0.143,0.227,0.220,0.222,0.124,0.080,north-northwest,6.5,No
2022/04/04,06:00,0.159,0.143,0.228,0.220,0.223,0.125,0.079,northwest,6.1,No
2022/04/04,06:10,0.158,0.143,0.226,0.219,0.222,0.125,0.080,north-northwest,6.8,No
2022/04/04,06:20,0.158,0.143,0.226,0.220,0.223,0.124,0.080,northwest,6.3,No
2022/04/04,06:30,0.158,0.143,0.228,0.220,0.223,0.124,0.079,north-northwest,6.1,No
2022/04/04,06:40,0.158,0.144,0.227,0.220,0.221,0.125,0.079,north-northwest,6.5,No
2022/04/04,06:50,0.157,0.143,0.227,0.220,0.222,0.125,0.079,north-northwest,6.6,No
2022/04/04,07:00,0.159,0.143,0.227,0.220,0.222,0.125,0.079,north-northwest,6.4,No
2022/04/04,07:10,0.157,0.143,0.228,0.220,0.222,0.125,0.079,north-northwest,6.3,No
2022/04/04,07:20,0.158,0.144,0.228,0.219,0.223,0.124,0.079,north-northwest,6.6,No
2022/04/04,07:30,0.158,0.143,0.227,0.219,0.223,0.125,0.079,north-northwest,5.1,No
2022/04/04,07:40,0.157,0.145,0.227,0.221,0.222,0.124,0.080,north-northwest,5.0,No
2022/04/04,07:50,0.159,0.143,0.227,0.219,0.222,0.124,0.080,north-northwest,5.2,No
2022/04/04,08:00,0.159,0.143,0.227,0.220,0.223,0.124,0.079,north-northwest,5.1,No
2022/04/04,08:10,0.159,0.144,0.227,0.219,0.223,0.124,0.079,north-northwest,6.4,No
2022/04/04,08:20,0.158,0.143,0.227,0.220,0.222,0.125,0.079,north-northwest,6.4,No
2022/04/04,08:30,0.158,0.144,0.227,0.220,0.223,0.125,0.079,north-northwest,4.9,No
2022/04/04,08:40,0.157,0.144,0.228,0.220,0.223,0.124,0.079,north-northwest,5.9,No
2022/04/04,08:50,0.158,0.143,0.228,0.220,0.220,0.125,0.079,north-northwest,5.7,No
2022/04/04,09:00,0.158,0.144,0.228,0.220,0.221,0.124,0.079,north-northwest,5.1,No
2022/04/04,09:10,0.158,0.143,0.227,0.220,0.221,0.124,0.079,north-northwest,6.6,No
2022/04/04,09:20,0.158,0.143,0.227,0.219,0.223,0.125,0.079,north-northwest,7.1,No
2022/04/04,09:30,0.159,0.144,0.228,0.221,0.223,0.124,0.079,north-northwest,7.4,No
2022/04/04,09:40,0.158,0.142,0.228,0.220,0.221,0.125,0.079,north-northwest,6.0,No
2022/04/04,09:50,0.157,0.145,0.228,0.221,0.223,0.124,0.079,north-northwest,6.3,No
2022/04/04,10:00,0.157,0.144,0.228,0.220,0.221,0.124,0.080,north-northwest,7.5,No
2022/04/04,10:10,0.158,0.142,0.227,0.218,0.223,0.124,0.079,north-northwest,7.0,Yes
2022/04/04,10:20,0.158,0.144,0.227,0.219,0.221,0.124,0.079,north-northwest,5.9,No
2022/04/04,10:30,0.159,0.142,0.228,0.220,0.223,0.124,0.079,north-northwest,6.2,No
2022/04/04,10:40,0.158,0.143,0.227,0.220,0.222,0.124,0.078,north-northwest,6.8,No
2022/04/04,10:50,0.158,0.143,0.228,0.220,0.222,0.124,0.079,north-northwest,7.1,No
2022/04/04,11:00,0.158,0.144,0.228,0.219,0.223,0.124,0.079,north-northwest,6.4,Yes
2022/04/04,11:10,0.157,0.144,0.228,0.220,0.222,0.124,0.079,north-northwest,6.4,Yes
2022/04/04,11:20,0.158,0.144,0.229,0.220,0.223,0.124,0.078,north-northwest,6.2,Yes
2022/04/04,11:30,0.157,0.143,0.229,0.221,0.222,0.124,0.079,northwest,6.6,Yes
2022/04/04,11:40,0.158,0.144,0.229,0.219,0.224,0.125,0.079,north,6.0,Yes
2022/04/04,11:50,0.158,0.143,0.229,0.221,0.222,0.125,0.079,north,5.1,Yes
2022/04/04,12:00,0.157,0.144,0.228,0.221,0.224,0.126,0.080,north,5.5,Yes
2022/04/04,12:10,0.159,0.145,0.228,0.220,0.224,0.126,0.080,north,6.6,Yes
2022/04/04,12:20,0.159,0.145,0.229,0.222,0.222,0.126,0.081,north,6.8,Yes
2022/04/04,12:30,0.159,0.145,0.228,0.222,0.224,0.126,0.080,north-northwest,6.8,Yes
2022/04/04,12:40,0.160,0.145,0.229,0.221,0.223,0.127,0.080,north-northwest,5.4,Yes
2022/04/04,12:50,0.159,0.144,0.229,0.220,0.223,0.127,0.080,north-northwest,5.9,Yes
2022/04/04,13:00,0.158,0.144,0.227,0.220,0.223,0.126,0.081,north-northwest,4.7,Yes
2022/04/04,13:10,0.158,0.145,0.227,0.219,0.223,0.127,0.081,-,CALM,Yes
2022/04/04,13:20,0.159,0.145,0.227,0.218,0.221,0.126,0.081,north-northwest,5.9,Yes
2022/04/04,13:30,0.159,0.143,0.227,0.218,0.222,0.126,0.082,north-northwest,6.1,Yes
2022/04/04,13:40,0.158,0.144,0.225,0.217,0.220,0.125,0.082,north-northwest,6.2,Yes
2022/04/04,13:50,0.158,0.145,0.225,0.218,0.222,0.125,0.081,north-northwest,5.5,Yes
2022/04/04,14:00,0.158,0.144,0.224,0.217,0.221,0.126,0.082,north-northwest,4.8,Yes
2022/04/04,14:10,0.157,0.144,0.225,0.218,0.220,0.126,0.082,north-northwest,6.8,Yes
2022/04/04,14:20,0.158,0.144,0.225,0.217,0.220,0.125,0.081,north-northwest,6.3,Yes
2022/04/04,14:30,0.157,0.143,0.225,0.217,0.221,0.125,0.081,north-northwest,6.5,Yes
2022/04/04,14:40,0.158,0.144,0.225,0.216,0.220,0.125,0.080,north-northwest,7.6,Yes
2022/04/04,14:50,0.158,0.143,0.225,0.217,0.220,0.125,0.080,north-northwest,8.4,Yes
2022/04/04,15:00,0.158,0.144,0.225,0.217,0.221,0.125,0.081,north-northwest,6.8,Yes
2022/04/04,15:10,0.157,0.143,0.225,0.215,0.220,0.125,0.080,north-northwest,6.6,Yes
2022/04/04,15:20,0.158,0.143,0.223,0.215,0.222,0.125,0.079,north-northwest,6.1,Yes
2022/04/04,15:30,0.158,0.143,0.223,0.216,0.220,0.124,0.080,north-northwest,7.7,Yes
2022/04/04,15:40,0.157,0.144,0.223,0.216,0.220,0.124,0.080,north-northwest,8.0,Yes
2022/04/04,15:50,0.158,0.143,0.222,0.215,0.220,0.124,0.080,northwest,7.1,Yes
2022/04/04,16:00,0.158,0.143,0.224,0.215,0.219,0.125,0.081,north-northwest,6.0,Yes
2022/04/04,16:10,0.157,0.143,0.222,0.215,0.219,0.124,0.080,north-northwest,6.5,Yes
2022/04/04,16:20,0.157,0.144,0.223,0.214,0.220,0.125,0.080,north-northwest,7.5,Yes
2022/04/04,16:30,0.157,0.143,0.223,0.214,0.219,0.125,0.080,north-northwest,8.5,Yes
2022/04/04,16:40,0.157,0.143,0.223,0.213,0.220,0.124,0.081,north-northwest,9.0,Yes
2022/04/04,16:50,0.157,0.143,0.220,0.215,0.220,0.124,0.081,north-northwest,7.7,Yes
2022/04/04,17:00,0.158,0.143,0.221,0.213,0.219,0.125,0.081,north-northwest,7.1,Yes
2022/04/04,17:10,0.156,0.143,0.221,0.214,0.219,0.124,0.080,northwest,7.6,Yes
2022/04/04,17:20,0.157,0.143,0.222,0.214,0.220,0.124,0.082,north-northwest,8.7,Yes
2022/04/04,17:30,0.157,0.143,0.221,0.213,0.219,0.125,0.082,north-northwest,8.4,Yes
2022/04/04,17:40,0.156,0.142,0.220,0.214,0.220,0.123,0.082,north-northwest,8.3,Yes
2022/04/04,17:50,0.156,0.142,0.223,0.213,0.220,0.124,0.081,north-northwest,8.6,Yes
2022/04/04,18:00,0.156,0.143,0.221,0.213,0.219,0.123,0.081,north-northwest,9.3,Yes
2022/04/04,18:10,0.157,0.143,0.220,0.213,0.218,0.123,0.080,north-northwest,8.6,Yes
2022/04/04,18:20,0.155,0.141,0.219,0.212,0.219,0.123,0.080,north-northwest,9.6,Yes
2022/04/04,18:30,0.155,0.141,0.219,0.213,0.219,0.123,0.079,north-northwest,9.4,Yes
2022/04/04,18:40,0.154,0.141,0.220,0.213,0.220,0.122,0.080,north-northwest,10.2,Yes
2022/04/04,18:50,0.155,0.141,0.220,0.211,0.218,0.121,0.080,north-northwest,9.3,Yes
2022/04/04,19:00,0.155,0.140,0.219,0.211,0.218,0.122,0.078,north-northwest,8.9,Yes
2022/04/04,19:10,0.154,0.140,0.219,0.212,0.218,0.122,0.079,north-northwest,9.7,Yes
2022/04/04,19:20,0.154,0.140,0.220,0.211,0.217,0.121,0.079,north-northwest,8.5,Yes
2022/04/04,19:30,0.153,0.140,0.219,0.210,0.218,0.121,0.079,north-northwest,8.3,Yes
2022/04/04,19:40,0.153,0.141,0.218,0.210,0.218,0.121,0.078,north-northwest,9.0,Yes
2022/04/04,19:50,0.155,0.140,0.219,0.210,0.218,0.122,0.079,north-northwest,8.5,Yes
2022/04/04,20:00,0.155,0.140,0.217,0.211,0.217,0.121,0.079,north-northwest,8.8,Yes
2022/04/04,20:10,0.154,0.138,0.218,0.209,0.217,0.121,0.079,north-northwest,9.5,Yes
2022/04/04,20:20,0.153,0.141,0.217,0.210,0.217,0.121,0.079,north-northwest,9.2,Yes
2022/04/04,20:30,0.154,0.141,0.217,0.210,0.217,0.121,0.079,north-northwest,8.5,Yes
2022/04/04,20:40,0.153,0.140,0.217,0.209,0.219,0.122,0.079,north-northwest,7.1,Yes
2022/04/04,20:50,0.155,0.140,0.217,0.209,0.217,0.121,0.079,north,10.1,Yes
2022/04/04,21:00,0.153,0.140,0.217,0.209,0.217,0.121,0.080,northwest,8.1,Yes
2022/04/04,21:10,0.153,0.140,0.218,0.209,0.217,0.122,0.079,north-northwest,8.3,Yes
2022/04/04,21:20,0.152,0.140,0.218,0.210,0.216,0.121,0.080,north-northwest,8.7,Yes
2022/04/04,21:30,0.153,0.141,0.218,0.210,0.217,0.121,0.079,north-northwest,8.4,Yes
2022/04/04,21:40,0.152,0.140,0.218,0.210,0.218,0.121,0.079,north-northwest,10.0,Yes
2022/04/04,21:50,0.152,0.140,0.218,0.210,0.217,0.121,0.078,north-northwest,9.7,Yes
2022/04/04,22:00,0.153,0.139,0.217,0.209,0.217,0.120,0.078,north-northwest,10.7,Yes
2022/04/04,22:10,0.152,0.140,0.216,0.211,0.217,0.120,0.078,north-northwest,10.8,Yes
2022/04/04,22:20,0.152,0.139,0.217,0.209,0.218,0.121,0.079,north-northwest,8.3,Yes
2022/04/04,22:30,0.152,0.140,0.217,0.209,0.216,0.120,0.078,north-northwest,9.9,Yes
2022/04/04,22:40,0.153,0.139,0.217,0.209,0.217,0.120,0.078,north-northwest,8.4,Yes
2022/04/04,22:50,0.151,0.139,0.216,0.208,0.217,0.121,0.079,north-northwest,9.9,Yes
2022/04/04,23:00,0.152,0.139,0.217,0.211,0.216,0.120,0.078,north-northwest,8.4,Yes
2022/04/04,23:10,0.152,0.139,0.218,0.210,0.216,0.121,0.078,north-northwest,10.2,Yes
2022/04/04,23:20,0.151,0.139,0.217,0.209,0.217,0.120,0.078,north-northwest,9.5,Yes
2022/04/04,23:30,0.152,0.139,0.216,0.208,0.218,0.120,0.078,north-northwest,9.5,Yes
2022/04/04,23:40,0.152,0.140,0.217,0.210,0.216,0.120,0.078,north-northwest,8.7,Yes
2022/04/04,23:50,0.152,0.139,0.218,0.210,0.216,0.120,0.078,north-northwest,8.5,Yes
